FORESAIL-1 PRIME

Last updated on Mon Sep 21 2026 00:03:45 GMT+0000 (Coordinated Universal Time)

1 66778U 25276DS 26263.57706376 .00002901 00000+0 14032-3 0 9990 2 66778 97.4118 335.1026 0003601 118.2483 241.9115 15.19381125 44886
UTC large
Height (km)
Speed (km/s)
/
Latitude / Longitude
Inclination (degrees)
Orbital Period (minutes)
Azimuth
Elevation
Range (km)
Doppler Factor

Next 0 passes for location: London (51.5072 / 0.1276)

No passes found over London.
FORESAIL-1 PRIME